DW5225 Weather Reports


Display with metric or nautical units.
time (UTC)temp
F
wind
direction
speed
MPH
gust
MPH
rain 1hr
in
rain 24hr
in
rain mn
in
humidity
%
barometer
mb
20260905000051 69 0 0.0 7.0 0.00 0.00 0.00 61 1022.1
20260904234552 71 0 0.0 9.0 0.00 0.00 0.00 58 1022.0
20260904233047 69 158 1.0 7.0 0.00 0.00 0.00 62 1021.9
20260904231546 69 0 0.0 1.0 0.00 0.00 0.00 60 1022.0
20260904224606 71 0 1.0 8.0 0.00 0.00 0.00 57 1022.0
20260904223047 69 0 1.0 6.0 0.00 0.00 0.00 60 1021.9
20260904221547 70 0 0.0 0.0 0.00 0.00 0.00 57 1021.9
20260904220055 71 0 0.0 1.0 0.00 0.00 0.00 55 1021.9
20260904214554 72 0 0.0 5.0 0.00 0.00 0.00 54 1021.9
20260904213048 73 0 0.0 8.0 0.00 0.00 0.00 53 1021.6
20260904211545 73 0 0.0 8.0 0.00 0.00 0.00 52 1021.5
20260904210048 73 0 0.0 1.0 0.00 0.00 0.00 51 1021.3
20260904204548 74 0 0.0 3.0 0.00 0.00 0.00 50 1021.5
20260904203050 74 0 0.0 5.0 0.00 0.00 0.00 49 1021.3
20260904201549 75 0 0.0 7.0 0.00 0.00 0.00 48 1021.3
20260904200047 75 168 1.0 9.0 0.00 0.00 0.00 46 1021.0
20260904194544 76 142 0.0 8.0 0.00 0.00 0.00 45 1020.8
20260904193052 77 155 1.0 10.0 0.00 0.00 0.00 43 1020.8
20260904191547 78 0 0.0 11.0 0.00 0.00 0.00 42 1020.8
20260904190048 78 155 2.0 14.0 0.00 0.00 0.00 41 1020.7
20260904184544 79 141 1.0 9.0 0.00 0.00 0.00 40 1020.6
20260904183050 79 150 2.0 10.0 0.00 0.00 0.00 39 1020.3
20260904181549 79 0 0.0 13.0 0.00 0.00 0.00 38 1020.0
20260904180043 80 0 0.0 7.0 0.00 0.00 0.00 37 1019.8
20260904174551 81 0 0.0 12.0 0.00 0.00 0.00 36 1019.8
20260904173047 81 0 2.0 8.0 0.00 0.00 0.00 35 1019.8
20260904171559 83 0 0.0 9.0 0.00 0.00 0.00 34 1019.8
20260904170053 84 0 3.0 11.0 0.00 0.00 0.00 33 1019.7
20260904164555 85 0 3.0 10.0 0.00 0.00 0.00 32 1019.7
20260904163046 86 0 2.0 12.0 0.00 0.00 0.00 31 1019.8
20260904161542 87 177 0.0 8.0 0.00 0.00 0.00 31 1019.8
20260904160053 87 0 2.0 11.0 0.00 0.00 0.00 31 1019.6
20260904154549 87 360 0.0 12.0 0.00 0.00 0.00 30 1019.8
20260904153047 87 0 2.0 12.0 0.00 0.00 0.00 30 1019.7
20260904151551 88 151 1.0 11.0 0.00 0.00 0.00 29 1019.8
20260904150049 88 360 3.0 14.0 0.00 0.00 0.00 29 1020.1
20260904144547 88 360 1.0 11.0 0.00 0.00 0.00 28 1020.2
20260904143044 88 0 1.0 11.0 0.00 0.00 0.00 28 1020.2
20260904141554 88 0 0.0 4.0 0.00 0.00 0.00 27 1020.4
20260904134554 85 0 0.0 3.0 0.00 0.00 0.00 31 1020.8
20260904133046 84 259 0.0 6.0 0.00 0.00 0.00 33 1021.1
20260904131548 84 254 1.0 6.0 0.00 0.00 0.00 35 1021.2
20260904130053 83 0 0.0 7.0 0.00 0.00 0.00 34 1021.3
20260904124600 82 0 0.0 7.0 0.00 0.00 0.00 37 1021.6
20260904123050 81 0 0.0 7.0 0.00 0.00 0.00 39 1021.9
20260904121548 81 0 0.0 5.0 0.00 0.00 0.00 39 1022.2
20260904120054 80 279 0.0 6.0 0.00 0.00 0.00 41 1022.3
20260904114544 79 0 0.0 1.0 0.00 0.00 0.00 38 1022.6
20260904113053 79 0 0.0 1.0 0.00 0.00 0.00 40 1022.7
20260904111551 77 0 0.0 1.0 0.00 0.00 0.00 40 1023.0
20260904110047 77 0 0.0 3.0 0.00 0.00 0.00 40 1023.3
20260904104543 76 0 0.0 0.0 0.00 0.00 0.00 41 1023.5
20260904103050 75 0 0.0 1.0 0.00 0.00 0.00 43 1023.8
20260904101550 74 0 0.0 1.0 0.00 0.00 0.00 45 1024.1
20260904100045 73 0 0.0 1.0 0.00 0.00 0.00 48 1024.2
20260904094542 73 0 0.0 1.0 0.00 0.00 0.00 49 1024.5
20260904093053 73 0 0.0 2.0 0.00 0.00 0.00 47 1024.6
20260904091547 71 0 0.0 1.0 0.00 0.00 0.00 48 1024.7
20260904090043 71 0 0.0 0.0 0.00 0.00 0.00 51 1024.9
20260904084553 69 0 0.0 0.0 0.00 0.00 0.00 51 1025.1
20260904083047 69 0 0.0 0.0 0.00 0.00 0.00 52 1025.2
20260904081544 68 0 0.0 0.0 0.00 0.00 0.00 54 1025.2
20260904080052 67 0 0.0 0.0 0.00 0.00 0.00 54 1025.3
20260904074554 67 0 0.0 0.0 0.00 0.00 0.00 57 1025.5
20260904073051 65 0 0.0 0.0 0.00 0.00 0.00 59 1025.6
20260904071553 63 0 0.0 4.0 0.00 0.00 0.00 62 1025.8
20260904070052 60 0 0.0 1.0 0.00 0.00 0.00 66 1025.8
20260904064550 58 0 0.0 5.0 0.00 0.00 0.00 69 1025.9
20260904063050 57 0 0.0 4.0 0.00 0.00 0.00 71 1025.8
20260904061550 56 0 0.0 6.0 0.00 0.00 0.00 71 1025.9
20260904060050 56 360 2.0 8.0 0.00 0.00 0.00 71 1025.9
20260904054547 56 144 2.0 7.0 0.00 0.00 0.00 71 1026.0
20260904053043 56 147 0.0 9.0 0.00 0.00 0.00 71 1025.9
20260904051600 56 0 1.0 6.0 0.00 0.00 0.00 71 1025.9
20260904050050 57 0 0.0 3.0 0.00 0.00 0.00 69 1026.0
20260904044547 57 0 0.0 4.0 0.00 0.00 0.00 69 1026.0
20260904043047 57 0 0.0 1.0 0.00 0.00 0.00 68 1026.0
20260904041546 57 0 0.0 0.0 0.00 0.00 0.00 68 1026.0
20260904040049 57 0 0.0 1.0 0.00 0.00 0.00 69 1026.1
20260904034543 57 0 0.0 0.0 0.00 0.00 0.00 69 1026.2
20260904033050 57 0 0.0 0.0 0.00 0.00 0.00 69 1026.2
20260904031550 57 0 0.0 4.0 0.00 0.00 0.00 70 1026.2
20260904030044 58 0 0.0 0.0 0.00 0.00 0.00 70 1026.3
20260904024553 58 0 0.0 2.0 0.00 0.00 0.00 69 1026.2
20260904023049 59 0 0.0 4.0 0.00 0.00 0.00 68 1026.4
20260904021547 59 0 0.0 1.0 0.00 0.00 0.00 67 1026.5
20260904020045 60 0 0.0 7.0 0.00 0.00 0.00 67 1026.5
20260904014604 59 0 0.0 3.0 0.00 0.00 0.00 69 1026.4
20260904013048 60 0 0.0 1.0 0.00 0.00 0.00 67 1026.6
20260904011545 60 0 0.0 0.0 0.00 0.00 0.00 66 1026.6
20260904010104 60 0 0.0 1.0 0.00 0.00 0.00 67 1026.6
20260904004545 60 0 0.0 0.0 0.00 0.00 0.00 68 1026.6
20260904003050 61 0 0.0 0.0 0.00 0.00 0.00 67 1026.6
20260904001550 61 0 0.0 0.0 0.00 0.00 0.00 67 1026.7